Карточка аэропорта UHBB

Внимание!
Информация на этой странице в стадии наполнения.
Если вы не увидели какой-то информации, или заметили неточность - пожалуйста сообщите нам!
Спасибо!
Команда RU-STAFF
Название аэропортаИгнатьево
Название аэропорта (англ.)Ignatyevo
Превышение640 ft. (195.1 m.)
Координаты50°25.536', 127°24.72'
Высота перехода900m
Эшелон переходаFL050
Коды ответчика1601-1617
Зона ОрВДХабаровск РПИ (UHHH)
Данные METARUHBB 100100Z 35004MPS 310V020 8000 -SHRA BKN026CB 14/14 Q0993 R36/090060 NOSIG RMK QFE728/0971
Проноз погоды (TAF)UHBB 091957Z 0921/1021 28003G08MPS 9999 BKN025CB TEMPO 0921/1015 3100 -TSRA BKN011 BKN015CB BECMG 0923/1001 33003G08MPS BECMG 1009/1012 27003MPS
NOTAMshow/hide NOTAM
AWOS   TABLE

Информация о ВПП

ВПП Длина ВПП (м.) Покрытие Курс ВПП Частота ILS
182800Асфальтобетон180 
362800Асфальтобетон360108.7

Диспетчерские позиции

Позывной Наименование органа УВД Частота
UHBB_TWRБлаговещенск-Вышка127.2



Спутниковое изображение